******** Week 151 almanac for PRN-1 ******** ID: 1 Health: 0 Eccentricity: 0.01148271561 Time of Applicability(s): 503808 Orbital Inclination(rad): 0.9870351443 Rate of Right Ascen(r/s): -7.623174678e-09 SQRT(A) (m 1/2): 5153.626953 Right Ascen at Week(rad): -2.163834574 Argument of Perigee(rad): 0.8830905691 Mean Anom(rad): -0.4977007409 Af0(s): 0.0003293556763 Af1(s/s): -1.091394e-11 week: 151 ******** Week 151 almanac for PRN-2 ******** ID: 2 Health: 0 Eccentricity: 0.02060699463 Time of Applicability(s): 503808 Orbital Inclination(rad): 0.9653736578 Rate of Right Ascen(r/s): -7.760323248e-09 SQRT(A) (m 1/2): 5153.658203 Right Ascen at Week(rad): -2.253448488 Argument of Perigee(rad): -1.435309422 Mean Anom(rad): -0.3613378633 Af0(s): -0.0005147595581 Af1(s/s): 0 week: 151 ******** Week 151 almanac for PRN-3 ******** ID: 3 Health: 0 Eccentricity: 0.003912448883 Time of Applicability(s): 503808 Orbital Inclination(rad): 0.9724862952 Rate of Right Ascen(r/s): -8.194627053e-09 SQRT(A) (m 1/2): 5153.61084 Right Ascen at Week(rad): -1.128572062 Argument of Perigee(rad): 0.9507860851 Mean Anom(rad): -1.643005402 Af0(s): -0.0001175731934 Af1(s/s): -1.818989e-11 week: 151 ******** Week 151 almanac for PRN-4 ******** ID: 4 Health: 0 Eccentricity: 0.001735210419 Time of Applicability(s): 503808 Orbital Inclination(rad): 0.9616166033 Rate of Right Ascen(r/s): -7.840326581e-09 SQRT(A) (m 1/2): 5153.602051 Right Ascen at Week(rad): -0.04719986981 Argument of Perigee(rad): -3.03438852 Mean Anom(rad): 1.261439291 Af0(s): -0.0001469664917 Af1(s/s): 3.637979e-12 week: 151 ******** Week 151 almanac for PRN-5 ******** ID: 5 Health: 0 Eccentricity: 0.005866527557 Time of Applicability(s): 503808 Orbital Inclination(rad): 0.9594654349 Rate of Right Ascen(r/s): -8.331775623e-09 SQRT(A) (m 1/2): 5153.615723 Right Ascen at Week(rad): -1.169221429 Argument of Perigee(rad): 1.008115246 Mean Anom(rad): 2.15895999 Af0(s): -5.803292236e-05 Af1(s/s): 0 week: 151 ******** Week 151 almanac for PRN-6 ******** ID: 6 Health: 0 Eccentricity: 0.002691745758 Time of Applicability(s): 503808 Orbital Inclination(rad): 0.9864119646 Rate of Right Ascen(r/s): -7.623174678e-09 SQRT(A) (m 1/2): 5153.638672 Right Ascen at Week(rad): -2.172104063 Argument of Perigee(rad): -0.931650274 Mean Anom(rad): -0.1954432339 Af0(s): 0.0001740987671 Af1(s/s): 1.091394e-11 week: 151 ******** Week 151 almanac for PRN-7 ******** ID: 7 Health: 0 Eccentricity: 0.01563024521 Time of Applicability(s): 503808 Orbital Inclination(rad): 0.95099858 Rate of Right Ascen(r/s): -7.943188008e-09 SQRT(A) (m 1/2): 5153.638184 Right Ascen at Week(rad): 0.9711933476 Argument of Perigee(rad): -2.288292622 Mean Anom(rad): -1.169702296 Af0(s): 0.0002479588501 Af1(s/s): 3.637979e-12 week: 151 ******** Week 151 almanac for PRN-8 ******** ID: 8 Health: 0 Eccentricity: 0.007363319397 Time of Applicability(s): 503808 Orbital Inclination(rad): 0.9647804386 Rate of Right Ascen(r/s): -7.851755628e-09 SQRT(A) (m 1/2): 5153.680664 Right Ascen at Week(rad): 3.039722624 Argument of Perigee(rad): 0.1190936096 Mean Anom(rad): 1.746061123 Af0(s): -4.59741333e-05 Af1(s/s): 0 week: 151 ******** Week 151 almanac for PRN-9 ******** ID: 9 Health: 0 Eccentricity: 0.002205371857 Time of Applicability(s): 503808 Orbital Inclination(rad): 0.9545998396 Rate of Right Ascen(r/s): -7.931758961e-09 SQRT(A) (m 1/2): 5153.563477 Right Ascen at Week(rad): -0.1002738824 Argument of Perigee(rad): 1.880152241 Mean Anom(rad): 2.129595643 Af0(s): -0.0002773521484 Af1(s/s): 3.637979e-12 week: 151 ******** Week 151 almanac for PRN-10 ******** ID: 10 Health: 0 Eccentricity: 0.007535457611 Time of Applicability(s): 503808 Orbital Inclination(rad): 0.972312524 Rate of Right Ascen(r/s): -8.183198006e-09 SQRT(A) (m 1/2): 5153.621582 Right Ascen at Week(rad): -1.131354274 Argument of Perigee(rad): -2.504364452 Mean Anom(rad): -2.53934603 Af0(s): -0.000266800708 Af1(s/s): -1.091394e-11 week: 151 ******** Week 151 almanac for PRN-11 ******** ID: 11 Health: 255 Eccentricity: 0.000274181366 Time of Applicability(s): 503808 Orbital Inclination(rad): 0.9621199407 Rate of Right Ascen(r/s): -7.886042771e-09 SQRT(A) (m 1/2): 5153.730469 Right Ascen at Week(rad): -2.120476771 Argument of Perigee(rad): 2.786328547 Mean Anom(rad): 1.693668713 Af0(s): -5.652557373e-05 Af1(s/s): 1.091394e-11 week: 151 ******** Week 151 almanac for PRN-12 ******** ID: 12 Health: 0 Eccentricity: 0.008724689484 Time of Applicability(s): 503808 Orbital Inclination(rad): 0.9697898446 Rate of Right Ascen(r/s): -8.160339911e-09 SQRT(A) (m 1/2): 5153.531738 Right Ascen at Week(rad): 2.084410621 Argument of Perigee(rad): 1.254252126 Mean Anom(rad): -1.815296986 Af0(s): -0.0001424444458 Af1(s/s): -7.275958e-12 week: 151 ******** Week 151 almanac for PRN-13 ******** ID: 13 Health: 0 Eccentricity: 0.005809783936 Time of Applicability(s): 503808 Orbital Inclination(rad): 0.9690827754 Rate of Right Ascen(r/s): -7.714607058e-09 SQRT(A) (m 1/2): 5153.632324 Right Ascen at Week(rad): 0.05278002453 Argument of Perigee(rad): 0.9511358747 Mean Anom(rad): 1.205031417 Af0(s): 0.0002147971802 Af1(s/s): 7.275958e-12 week: 151 ******** Week 151 almanac for PRN-14 ******** ID: 14 Health: 0 Eccentricity: 0.001513004303 Time of Applicability(s): 503808 Orbital Inclination(rad): 0.9531916931 Rate of Right Ascen(r/s): -8.366062766e-09 SQRT(A) (m 1/2): 5153.586914 Right Ascen at Week(rad): 2.052825447 Argument of Perigee(rad): 3.019408988 Mean Anom(rad): -1.750154859 Af0(s): -7.159906006e-05 Af1(s/s): -3.637979e-12 week: 151 ******** Week 151 almanac for PRN-15 ******** ID: 15 Health: 0 Eccentricity: 0.01394367218 Time of Applicability(s): 503808 Orbital Inclination(rad): 0.9304156737 Rate of Right Ascen(r/s): -8.251772291e-09 SQRT(A) (m 1/2): 5153.691895 Right Ascen at Week(rad): -0.2067342463 Argument of Perigee(rad): 1.078625932 Mean Anom(rad): 0.7605717183 Af0(s): -6.255496826e-05 Af1(s/s): 3.637979e-12 week: 151 ******** Week 151 almanac for PRN-16 ******** ID: 16 Health: 0 Eccentricity: 0.01279115677 Time of Applicability(s): 503808 Orbital Inclination(rad): 0.9697359156 Rate of Right Ascen(r/s): -8.171768958e-09 SQRT(A) (m 1/2): 5153.553223 Right Ascen at Week(rad): 2.103025493 Argument of Perigee(rad): 0.714439568 Mean Anom(rad): 2.613151254 Af0(s): -0.0003768371582 Af1(s/s): -3.637979e-12 week: 151 ******** Week 151 almanac for PRN-17 ******** ID: 17 Health: 0 Eccentricity: 0.0135550499 Time of Applicability(s): 503808 Orbital Inclination(rad): 0.9799464752 Rate of Right Ascen(r/s): -7.634603726e-09 SQRT(A) (m 1/2): 5153.725586 Right Ascen at Week(rad): 3.121835911 Argument of Perigee(rad): -1.495210323 Mean Anom(rad): 1.660913205 Af0(s): 0.0004604950073 Af1(s/s): 3.637979e-12 week: 151 ******** Week 151 almanac for PRN-18 ******** ID: 18 Health: 0 Eccentricity: 0.00211763382 Time of Applicability(s): 503808 Orbital Inclination(rad): 0.970820488 Rate of Right Ascen(r/s): -7.806039438e-09 SQRT(A) (m 1/2): 5153.571289 Right Ascen at Week(rad): -2.156278145 Argument of Perigee(rad): 3.091227452 Mean Anom(rad): -0.272951583 Af0(s): 0.0001793744873 Af1(s/s): -7.275958e-12 week: 151 ******** Week 151 almanac for PRN-19 ******** ID: 19 Health: 0 Eccentricity: 0.009000778198 Time of Applicability(s): 503808 Orbital Inclination(rad): 0.9787360685 Rate of Right Ascen(r/s): -7.611745631e-09 SQRT(A) (m 1/2): 5153.645996 Right Ascen at Week(rad): -3.116511919 Argument of Perigee(rad): 2.015153785 Mean Anom(rad): -2.204434506 Af0(s): 0.0001002386841 Af1(s/s): 3.637979e-12 week: 151 ******** Week 151 almanac for PRN-20 ******** ID: 20 Health: 0 Eccentricity: 0.005094051361 Time of Applicability(s): 503808 Orbital Inclination(rad): 0.9416808451 Rate of Right Ascen(r/s): -8.491782288e-09 SQRT(A) (m 1/2): 5153.696289 Right Ascen at Week(rad): -1.283620218 Argument of Perigee(rad): -3.137546481 Mean Anom(rad): 0.4977359446 Af0(s): 0.0004084914795 Af1(s/s): 0 week: 151 ******** Week 151 almanac for PRN-21 ******** ID: 21 Health: 0 Eccentricity: 0.02457618713 Time of Applicability(s): 503808 Orbital Inclination(rad): 0.959633214 Rate of Right Ascen(r/s): -7.771752296e-09 SQRT(A) (m 1/2): 5153.529297 Right Ascen at Week(rad): -2.255193691 Argument of Perigee(rad): -0.9925353796 Mean Anom(rad): 1.863276579 Af0(s): 0.0001258636108 Af1(s/s): 0 week: 151 ******** Week 151 almanac for PRN-22 ******** ID: 22 Health: 0 Eccentricity: 0.01301240921 Time of Applicability(s): 503808 Orbital Inclination(rad): 0.9617843824 Rate of Right Ascen(r/s): -7.783181343e-09 SQRT(A) (m 1/2): 5153.618652 Right Ascen at Week(rad): 0.001105170241 Argument of Perigee(rad): -1.869898238 Mean Anom(rad): 1.552015923 Af0(s): 0.0001756061157 Af1(s/s): 7.275958e-12 week: 151 ******** Week 151 almanac for PRN-23 ******** ID: 23 Health: 0 Eccentricity: 0.001996517181 Time of Applicability(s): 503808 Orbital Inclination(rad): 0.967357047 Rate of Right Ascen(r/s): -8.240343243e-09 SQRT(A) (m 1/2): 5153.644043 Right Ascen at Week(rad): -1.156309925 Argument of Perigee(rad): 2.984430406 Mean Anom(rad): -1.23578481 Af0(s): -3.014697266e-06 Af1(s/s): -3.637979e-12 week: 151 ******** Week 151 almanac for PRN-24 ******** ID: 24 Health: 0 Eccentricity: 0.01235723495 Time of Applicability(s): 503808 Orbital Inclination(rad): 0.9345562234 Rate of Right Ascen(r/s): -8.046049436e-09 SQRT(A) (m 1/2): 5153.643555 Right Ascen at Week(rad): 0.888145665 Argument of Perigee(rad): 0.8101931506 Mean Anom(rad): -0.2036737749 Af0(s): 0.0002140435059 Af1(s/s): -3.637979e-12 week: 151 ******** Week 151 almanac for PRN-25 ******** ID: 25 Health: 0 Eccentricity: 0.01054954529 Time of Applicability(s): 503808 Orbital Inclination(rad): 0.9572004164 Rate of Right Ascen(r/s): -8.308917528e-09 SQRT(A) (m 1/2): 5153.641113 Right Ascen at Week(rad): 2.007437442 Argument of Perigee(rad): 0.9873244888 Mean Anom(rad): -2.082303645 Af0(s): 0.0002321316895 Af1(s/s): 3.637979e-12 week: 151 ******** Week 151 almanac for PRN-26 ******** ID: 26 Health: 0 Eccentricity: 0.006905078888 Time of Applicability(s): 503808 Orbital Inclination(rad): 0.938049625 Rate of Right Ascen(r/s): -8.514640383e-09 SQRT(A) (m 1/2): 5153.643066 Right Ascen at Week(rad): 1.960087395 Argument of Perigee(rad): 0.3788303376 Mean Anom(rad): -2.736979381 Af0(s): 0.0001484738403 Af1(s/s): 3.637979e-12 week: 151 ******** Week 151 almanac for PRN-27 ******** ID: 27 Health: 0 Eccentricity: 0.01033687592 Time of Applicability(s): 503808 Orbital Inclination(rad): 0.9734989622 Rate of Right Ascen(r/s): -7.737465153e-09 SQRT(A) (m 1/2): 5153.606445 Right Ascen at Week(rad): 3.059281253 Argument of Perigee(rad): 0.6454130541 Mean Anom(rad): 1.720116399 Af0(s): 0.0001122974731 Af1(s/s): 1.455192e-11 week: 151 ******** Week 151 almanac for PRN-29 ******** ID: 29 Health: 0 Eccentricity: 0.001881122589 Time of Applicability(s): 503808 Orbital Inclination(rad): 0.9819778014 Rate of Right Ascen(r/s): -7.634603726e-09 SQRT(A) (m 1/2): 5153.70166 Right Ascen at Week(rad): 3.134878118 Argument of Perigee(rad): 2.243642021 Mean Anom(rad): 1.852391907 Af0(s): -0.0003851275757 Af1(s/s): -3.637979e-12 week: 151 ******** Week 151 almanac for PRN-30 ******** ID: 30 Health: 0 Eccentricity: 0.005583286285 Time of Applicability(s): 503808 Orbital Inclination(rad): 0.9361501253 Rate of Right Ascen(r/s): -8.103194673e-09 SQRT(A) (m 1/2): 5153.519531 Right Ascen at Week(rad): 0.984056915 Argument of Perigee(rad): -2.737009341 Mean Anom(rad): -1.122138031 Af0(s): -0.0004084914795 Af1(s/s): -3.637979e-12 week: 151 ******** Week 151 almanac for PRN-31 ******** ID: 31 Health: 0 Eccentricity: 0.01044130325 Time of Applicability(s): 503808 Orbital Inclination(rad): 0.9551990508 Rate of Right Ascen(r/s): -7.897471818e-09 SQRT(A) (m 1/2): 5153.649902 Right Ascen at Week(rad): 0.9893543169 Argument of Perigee(rad): 0.3796284121 Mean Anom(rad): -1.624102909 Af0(s): -0.0001326466797 Af1(s/s): 0 week: 151 ******** Week 151 almanac for PRN-32 ******** ID: 32 Health: 0 Eccentricity: 0.005714416504 Time of Applicability(s): 503808 Orbital Inclination(rad): 0.9584527679 Rate of Right Ascen(r/s): -7.851755628e-09 SQRT(A) (m 1/2): 5153.526855 Right Ascen at Week(rad): -0.08899859925 Argument of Perigee(rad): -2.330209321 Mean Anom(rad): 2.345501941 Af0(s): -6.180129394e-05 Af1(s/s): -7.275958e-12 week: 151